Showing default

OPS 8480 (TRANSIT 5B-6), 1420

Orbit data source: Space-Track

OPS 8480 (TRANSIT 5B-6), 1420 is a payload satellite owned by USN BuWeps (US) in LEO that was launched on Thu, 24 Jun 1965 UTC via a THOR ABLESTAR launch vehicle from the Air Force Western Test Range (AFWTR). Payload-class satellites include a variety of spacecraft equipped with specific instruments for various scientific and technological missions. These include communications satellites like Starlink; space stations such as the ISS; scientific satellites like the Hubble; Earth observation satellites from companies like Planet Labs, Umbra, and HawkEye 360; GPS; miniature CubeSats for education and research; and military/defense satellites.

Loading next visibility...
Identifier
1420, 1965-048A
Orbit
LEO
Country
Flag of USUS
Related business
Manufacturer
APL
Mission
Spacecraft
Bus & Motor
TRANSIT 5, Unknown motor
Mass
~54 kg wet, ~54 kg dry
Launch date (UTC)
1965-06-24 (61 years ago)
Launch vehicle
THOR ABLESTAR
Launch site
Air Force Western Test Range (AFWTR)
Object type
Payload
Rocket body
Debris
Shape & HBR
Unknown
Radar Cross Section
Large (>1 m²)

Expand to show TLE details & history
Last TLE update: 14 hours ago

TLE from 14 hours ago
0 OPS 8480 (TRANSIT 5B-6)
1  1420U 65048A   26035.29606806  .00000151  00000-0  21044-3 0  9994
2  1420  89.8811 287.8640 0075133  95.9369  25.3665 13.51878354985496
Epoch: 2026-02-04T07:06Z
TLE epoch observation values (Epoch: 2026-02-04T07:06:20.280Z)
Latitude
58.41688°
Longitude
-133.37758°
Altitude
1,024.834 km
Speed
7.37 km/s
True Right ascension
07h 10m 41s
True Declination
58° 16' 08"
Sunlit
Object was in full shadow at epoch
Visualization orbit readout
Latitude
Unknown
Longitude
Unknown
Altitude
Unknown
Speed
Unknown
Apparent Right ascension
Unknown
Apparent Declination
Unknown
Sunlit
N/A
Visualization observer readout
Local Sidereal Time
22:39:54
Azimuth
Unknown
Elevation
Unknown
Doppler factor
Unknown
Orbital elements
Apogee altitude
1,118.306 km
Perigee altitude
1,006.5 km
Semi-major axis
7,440.54 km
Eccentricity
0.00751
Inclination
89.8811°
RAAN
287.864°
Arg. of periapsis
95.9369°
True anomaly
25.73849°
Mean anomaly
25.3665°
Eccentric anomaly
25.55218°
Mean motion
3.38171 °/min
Orbital period
106.45 mins
BSTAR
0.00021044
Loading maneuver chart data...
Computing Atmospheric mass density...

Documentation

Showing up to 5 results
|